Home   Weather   San Jose   Past weeks

Flag for Costa Rica Past Weather in San Jose, Costa Rica — Yesterday and Last 2 Weeks

Now
72 °F

Light rain. Partly cloudy.


Feels Like: 65 °F
Forecast: 66 / 77 °F
Wind: 5 mph from North

Location: Juan Santamaria

Current Time: May 25, 2017 at 4:28:36 am

Latest Report: May 25, 2017 at 4:00 am


Visibility: N/A

Pressure: 29.95 "Hg (26.18 "Hg at 1161m altitude)

Humidity: 100%

Dew Point: 72 °F

Location of San JoseLocation

Past Weather in San Jose — Graph

°F

San Jose Temperature Yesterday

Maximum temperature yesterday: 84 °F (at 10:00 am)
Minimum temperature yesterday: 68 °F (at 3:00 am)
Average temperature yesterday: 74 °F

High & Low Weather Summary for the Past Weeks

 TemperatureHumidityPressure
High84 °F (May 20, 11:00 am)100% (May 10, 7:00 pm)30.08 "Hg (May 10, 7:00 pm)
Low64 °F (May 10, 5:00 am)55% (May 20, 11:00 am)29.65 "Hg (May 17, 3:00 pm)
Average73 °F89%29.99 "Hg
* Reported May 10 3:00 am — May 25 3:00 am, San Jose. Weather by CustomWeather, © 2017

Note: Actual official high and low records may vary slightly from our data, if they occured in-between our weather recording intervals... More about our weather records

Advertising

San Jose Weather History for the Previous 24 Hours

Scroll right to see more
 ConditionsComfort  
Time TempWeatherWind HumidityBarometerVisibility
3:00 am
Thu, May 25
72 °FLight rain. Fog.No wind100%29.95 "Hg2 mi
2:00 am72 °FFog.No wind100%29.97 "Hg2 mi
1:00 am72 °FFog.2 mph100%29.97 "Hg2 mi
12:00 am72 °FFog.2 mph100%29.99 "Hg3 mi
11:00 pm
Wed, May 24
72 °FFog.3 mph100%30.01 "Hg5 mi
10:00 pm72 °FFog.3 mph94%30.01 "Hg5 mi
9:00 pm72 °FFog.3 mph94%30.00 "Hg3 mi
8:00 pm73 °FFog.5 mph94%29.97 "Hg1 mi
7:00 pm73 °FFog.6 mph94%29.95 "Hg1 mi
6:00 pm73 °FFog.7 mph94%29.95 "Hg3 mi
5:00 pm75 °FScattered clouds.7 mph94%29.93 "Hg6 mi
4:00 pm75 °FLight rain. Scattered clouds.7 mph94%29.93 "HgN/A
3:00 pm75 °FLight rain. Partly sunny.6 mph94%29.92 "HgN/A
2:00 pm79 °FThunderstorms. Broken clouds.9 mph84%29.94 "HgN/A
1:00 pm81 °FScattered clouds.13 mph79%29.96 "HgN/A
12:00 pm82 °FScattered clouds.14 mph74%29.97 "HgN/A
11:00 am81 °FPartly sunny.10 mph70%N/AN/A
10:00 am84 °FSunny.5 mph55%29.98 "Hg10 mi
9:00 am82 °FSunny.7 mph62%29.99 "Hg10 mi
8:00 am77 °FSunny.6 mph69%30.00 "Hg10 mi
7:00 am73 °FSunny.12 mph78%29.99 "Hg10 mi
6:00 am68 °FSunny.9 mph88%29.97 "Hg10 mi
5:00 am68 °FPassing clouds.8 mph88%29.96 "HgN/A
Weather by CustomWeather, © 2017

See weather overviewHow to use our weather pages